Other Public Products
Issued by NWS Grand Forks, ND

Home | Current Version | Previous Version | Graphics & Text | Print | Product List | Glossary On
Versions: 1 2 3 4 5 6 7 8 9 10 11 12 13 14 15 16 17 18 19 20 21 22 23 24 25 26 27 28 29 30 31 32 33 34 35 36 37 38 39 40 41 42 43 44 45 46 47 48 49 50
000
FPUS83 KFGF 291210
OPUFGF
PRAIRIE TO PINES WEATHER ROUNDUP
NATIONAL WEATHER SERVICE EASTERN NORTH DAKOTA/GRAND FORKS ND
700 AM CDT SAT AUG 29 2015

 **SATELLITE DATA USED TO AUGMENT SKY COVER AT AUTOMATED STATIONS**
 *****  WEATHER ACROSS EASTERN NORTH DAKOTA  *****

CITY           SKY/WX    TMP DP  RH WIND       PRES   REMARKS
GRAND FORKS      N/A     62  61  96 S6        29.90R FOG
6HR MIN TEMP:  61; 6HR MAX TEMP:  67;

GRAND FORKS AF FOG       59  59 100 S3        29.90S VSB<1/4
GRAND CITY NWS   N/A     61 N/A N/A S5          N/A
BUXTON         NOT AVBL
DEVILS LAKE      N/A     63  57  82 SE7       29.90R VSB<1/4
6HR MIN TEMP:  57; 6HR MAX TEMP:  66;

FARGO          CLEAR     63  59  87 S9        29.95R
6HR MIN TEMP:  63; 6HR MAX TEMP:  69;

WAHPETON ARPT  SUNNY     57  54  88 S8        29.99R
$$

 *****  WEATHER ACROSS CENTRAL AND WESTERN NORTH DAKOTA  *****

CITY           SKY/WX    TMP DP  RH WIND       PRES   REMARKS
JAMESTOWN      CLEAR     60  59  96 S5        29.93R FOG
6HR MIN TEMP:  60; 6HR MAX TEMP:  67;

BISMARCK       CLOUDY    58  57  97 W5        29.95R FOG
6HR MIN TEMP:  57; 6HR MAX TEMP:  66;

MINOT          CLOUDY    61  52  72 CALM      29.90R HAZE
6HR MIN TEMP:  60; 6HR MAX TEMP:  65;

MINOT AFB      MOCLDY    55  55 100 W7        29.89R
GARRISON         N/A     55  51  86 CALM      29.93R
6HR MIN TEMP:  54; 6HR MAX TEMP:  64;

WILLISTON      MOCLDY    56  51  84 SW3       29.91S HAZE
6HR MIN TEMP:  54; 6HR MAX TEMP:  63;

DICKINSON      CLOUDY    57  44  62 S6        29.96R HAZE
6HR MIN TEMP:  55; 6HR MAX TEMP:  63;

HETTINGER      CLOUDY    48  43  82 CALM      30.01S HAZE
6HR MIN TEMP:  47; 6HR MAX TEMP:  57;

$$

 *****  OTHER OBSERVATIONS NORTHEAST NORTH DAKOTA  *****

CITY           SKY/WX    TMP DP  RH WIND       PRES   REMARKS
WALHALLA       FOG       57  57 100 MISG      29.90R VSB 1/2
LANGDON        FAIR      59  59 100 SE5       29.92S FOG
CAVALIER       FOG       61  61 100 CALM      29.89F VSB<1/4
GRAFTON        FOG       59  59 100 CALM      29.90S VSB<1/4
CANDO          NOT AVBL
FORT TOTTEN    NOT AVBL
ROLLA          FOG       55  55 100 S3        29.93R VSB<1/4
RUGBY          FOG       55  55 100 SE3       29.90S VSB 1/2
 ***** THE ABOVE OBSERVATIONS ARE NON NWS ARE NOT QUALITY
        CONTROLLED AND MAY MIS-REPORT RAIN FOR SNOW...
$$

 *****  OTHER OBSERVATIONS SOUTHEAST NORTH DAKOTA *****

CITY           SKY/WX    TMP DP  RH WIND       PRES   REMARKS
COOPERSTOWN    NOT AVBL
VALLEY CITY    FAIR      63  63 100 S6        29.94R
OAKES            N/A     63  55  77 S12       29.96R
GWINNER          N/A     63  63 100 S12       29.97R
SHEYENNE NWR     N/A     62  61  96 SW5       29.95S
BUFFALO        NOT AVBL
WYNDMERE         N/A     59  59 100 SE5         N/A
 ***** THE ABOVE OBSERVATIONS ARE NON NWS ARE NOT QUALITY
       CONTROLLED AND MAY MIS-REPORT RAIN FOR SNOW...
$$

  *****  WEATHER ACROSS NORTHERN MINNESOTA  *****

CITY           SKY/WX    TMP DP  RH WIND       PRES   REMARKS
FLAG ISLAND    FOG       63  63 100 CALM      29.93R VSB 1/2
WARROAD        FOG       63  59  88 SW5       29.94S VSB<1/4
ROSEAU         HAZE      64  59  82 S3        29.93S VSB 1/2
HALLOCK        FOG       66  64  94 S8        29.90R VSB 1/4
THF RVR FALLS  CLEAR    N/A N/A N/A S7        29.93S
HALSTAD        NOT AVBL
FOSSTON        CLEAR     61  59  94 S9        29.97R
BAUDETTE       FOG       59  59 100 CALM      29.94S VSB 1/4
6HR MIN TEMP:  59; 6HR MAX TEMP:  69;

WASKISH        CLOUDY    63  61  94 CALM      29.96S
CROOKSTON      CLEAR     63  61  94 S8        29.94R
$$
  *****  WEATHER ACROSS CENTRAL AND WEST MINNESOTA  *****

CITY           SKY/WX    TMP DP  RH WIND       PRES   REMARKS
BEMIDJI        CLEAR     60  59  96 S5        29.99R
PARK RAPIDS    PTCLDY    60  57  89 S8        30.01R
6HR MIN TEMP:  59; 6HR MAX TEMP:  64;

WADENA         CLEAR     55  55 100 CALM      30.02R
DETROIT LAKES  CLEAR     61  59  94 S7        30.00S
MOORHEAD       CLEAR     61  59  94 S12       29.97R
FERGUS FALLS   CLEAR     59  59 100 S8        30.00S
ELBOW LAKE     FAIR      56  55  95 S8        30.01S
6HR MIN TEMP:  56; 6HR MAX TEMP:  60;

MORRIS MN      CLEAR     55  54  94 SE7       30.02R
STAPLES        CLOUDY    57  55  94 S5        30.03R
WHEATON        CLEAR     55  54  94 SE8       30.01S
$$
  *****  WEATHER ELSEWHERE ACROSS MINNESOTA  *****

CITY           SKY/WX    TMP DP  RH WIND       PRES   REMARKS
DULUTH         CLOUDY    58  56  93 SW8       30.02F
6HR MIN TEMP:  58; 6HR MAX TEMP:  62; 6HR PCP:  0.05;

INTRNTL FALLS  CLOUDY    65  63  93 S5        29.96R
6HR MIN TEMP:  65; 6HR MAX TEMP:  69;

ELY            PTCLDY    57  55  94 SW5       30.00S
CLOQUET        CLOUDY    57  55  94 S8        30.04S
BRAINERD       CLOUDY    57  56  96 S7        30.04S
6HR MIN TEMP:  57; 6HR MAX TEMP:  61;

HIBBING        CLOUDY    61  57  87 VRB5      30.03R
6HR MIN TEMP:  61; 6HR MAX TEMP:  66;

ALEXANDRIA     MOCLDY    58  56  93 S7        30.05R
6HR MIN TEMP:  57; 6HR MAX TEMP:  61;

SAINT CLOUD    FOG       53  53 100 CALM      30.05S VSB 1
6HR MIN TEMP:  52; 6HR MAX TEMP:  58;

MINNEAPOLIS    MOCLDY    57  54  89 E7        30.05S
6HR MIN TEMP:  56; 6HR MAX TEMP:  60;

$$

  *****  WEATHER ACROSS SOUTH DAKOTA  *****

CITY           SKY/WX    TMP DP  RH WIND       PRES   REMARKS
SIOUX FALLS    CLEAR     52  51  97 CALM      30.06R FOG
6HR MIN TEMP:  51; 6HR MAX TEMP:  56;

BROOKINGS      MOCLDY    54  50  87 SE3       30.06S
WATERTOWN      CLEAR     56  54  93 SE7       30.03R
6HR MIN TEMP:  56; 6HR MAX TEMP:  61;

HURON          CLEAR     59  57  93 SE9       30.01R
6HR MIN TEMP:  59; 6HR MAX TEMP:  64;

SISSETON         N/A     57  57 100 S5        29.97S
ABERDEEN       CLEAR     60  58  92 S8        29.98R
6HR MIN TEMP:  60; 6HR MAX TEMP:  66;

MITCHELL       CLEAR     59  57  93 S7        30.04R
PIERRE         PTCLDY    61  60  97 S6        29.98R
6HR MIN TEMP:  61; 6HR MAX TEMP:  67;

MOBRIDGE       MOCLDY    61  61 100 CALM      29.94S
RAPID CITY     PTCLDY    60  53  77 CALM      30.05S
6HR MIN TEMP:  56; 6HR MAX TEMP:  66;

$$

  *****  SOME WEATHER IN NEARBY STATES *****

CITY           SKY/WX    TMP DP  RH WIND       PRES   REMARKS
GLASGOW MT     MOCLDY    65  45  48 E7        29.88S HAZE
6HR MIN TEMP:  63; 6HR MAX TEMP:  67;

GREAT FALLS MT MOCLDY    70  39  32 SE3       29.93F HAZE
6HR MIN TEMP:  67; 6HR MAX TEMP:  74;

CHEYENNE WY    CLEAR     53  44  71 W6        30.28F
6HR MIN TEMP:  53; 6HR MAX TEMP:  56;

SCOTTSBLUFF NE CLEAR     53  49  86 E3        30.17S
6HR MIN TEMP:  52; 6HR MAX TEMP:  62;

OMAHA NE       DRIZZLE   61  60  97 N8        30.04R
6HR MIN TEMP:  61; 6HR MAX TEMP:  64; 6HR PCP: TRACE;

DES MOINES IA  CLOUDY    64  61  90 N8        29.97R
6HR MIN TEMP:  64; 6HR MAX TEMP:  71; 6HR PCP: TRACE;

DAVENPORT IA   CLOUDY    66  64  93 S5        29.97R
6HR MIN TEMP:  65; 6HR MAX TEMP:  67; 6HR PCP:  0.27;

CHICAGO IL     LGT RAIN  63  62  97 SE6       30.04R FOG
6HR MIN TEMP:  63; 6HR MAX TEMP:  69; 6HR PCP:  0.49;

EAU CLAIRE WI  CLOUDY    56  54  93 NE7       30.07R FOG
6HR MIN TEMP:  52; 6HR MAX TEMP:  56;

LA CROSSE WI   CLOUDY    61  58  90 N3        30.04R
6HR MIN TEMP:  60; 6HR MAX TEMP:  61;

$$

  *****  SOME NATIONAL WEATHER *****

CITY           SKY/WX    TMP DP  RH WIND       PRES   REMARKS
LA GUARDIA NY  MOSUNNY   73  55  53 CALM      30.21R
6HR MIN TEMP:  70; 6HR MAX TEMP:  73;




USA.gov is the U.S. government's official web portal to all federal, state and local government web resources and services.